Weather in Kurgan

Russia / Perm Krai     60°09′58″N   56°08′17″E
temp.,
°C
wind,
m/s
gust,
m/s
humid.,
%
clouds,
%
prec.,
mm/h
press.,
hPa
HPBL,
m
3 march, wed
wed323:00−8s4895100 1.4 991261
02:00−8ssw489691 0.3 991255
05:00−5w379695 1.8 992401
08:00−6wsw2397100 0.6 99292
11:00−4w369498 0.9 993423
14:00−4w368997 0.1 993636
17:00−4w479197 0.2 994812
20:00−6wsw3996100 0.2 994418
4 march, thu
thu423:00−7wsw389699 0.5 994304
02:00−7wsw3796100 0.3 993275
05:00−9wsw379697 0.4 993237
08:00−10wsw369692 0.3 992263
11:00−8sw359396 0.4 993402
14:00−6sw3589100 0.3 992630
17:00−6ssw2488100 0.4 991618
20:00−9se1297100 0.1 99121
5 march, fri
fri523:00−9ese1197100 0.4 99221
02:00−10ene129799 0.1 99121
05:00−11nne129796 0.3 99221
08:00−12nne129797 0.1 99420
11:00−9n129397 0.1 995189
14:00−6nnw2289100 0.1 996429
17:00−7nw2392100 0.4 997407
20:00−10w259699 0.2 999164
6 march, sat
sat623:00−13w379599 0.4 1000259
02:00−13w3796100 0.2 1001259
05:00−14wnw4895100 0.7 1003347
08:00−16wnw3895100 0.3 1005283
11:00−14w3593100 0.3 1006387
14:00−13w3490100 0.1 1007524
17:00−12wsw2488100 0.1 1007687
20:00−16wsw1297100 0.1 100720
7 march, sun
sun723:00−18wsw119897 0.1 100720
02:00−21wsw1110060 0.0 100620
05:00−20sw019973 0.1 100620
08:00−19sw009999 0.1 100520
11:00−16w119191 0.1 1005275
14:00−13w1283100 0.1 1005694
17:00−14w1285100 0.2 1004606
20:00−20w019589 0.0 100520